Weather History for Perryton, TX

Change the Weather History Date:

Thursday, February 28, 2013

  Actual Average Record
Temperature  
Mean Temperature 32 °F -  
Max Temperature 42 °F 55 °F 84 °F (2006)
Min Temperature 23 °F 27 °F 15 °F (1977)
Degree Days  
Heating Degree Days 32    
Moisture  
Dew Point 25 °F    
Average Humidity 74    
Maximum Humidity 93    
Minimum Humidity 53    
Precipitation  
Precipitation 0.00 in - - ()
Sea Level Pressure  
Sea Level Pressure 30.23 in    
Wind  
Wind Speed 9 mph (West)    
Max Wind Speed 14 mph    
Max Gust Speed -    
Visibility 10 miles    
Events      
Averages and records for this station are not official NWS values.
T = Trace of Precipitation, MM = Missing Value Source: NWS Daily Summary

Daily Weather History Graph

Daily Weather History Graph

Search for Another Location

Airport:

Trip Planner

Search our weather history database for the weather conditions in past years. The results will help you decide how hot, cold, wet, or windy it might be!

Date:

Astronomy

Feb. 28, 2013 Rise Set
Actual Time 7:14 AM CST 6:37 PM CST
Civil Twilight 6:48 AM CST 7:02 PM CST
Nautical Twilight 6:18 AM CST 7:32 PM CST
Astronomical Twilight 5:48 AM CST 8:02 PM CST
Moon 9:58 PM CST (2/28) 8:31 AM CST (2/28)
Length of Visible Light 12h 14m
Length of Day
11h 22m
Waning Gibbous, 90% of the Moon is Illuminated
Feb 28
Waning Gibbous
Mar 4
Last Quarter
Mar 11
New
Mar 19
First Quarter
Mar 27
Full

Hourly Weather History & Observations

Time (CST) Temp. Windchill Dew Point Humidity Pressure Visibility Wind Dir Wind Speed Gust Speed Precip Events Conditions
12:15 AM 23.0 °F 12.4 °F 21.2 °F 93% 30.23 in 10.0 mi West 10.4 mph - N/A   Clear
12:55 AM 26.6 °F 16.8 °F 23.0 °F 86% 30.23 in 10.0 mi West 10.4 mph - N/A   Clear
1:15 AM 26.6 °F 16.8 °F 21.2 °F 80% 30.24 in 10.0 mi West 10.4 mph - N/A   Clear
1:35 AM 26.6 °F 16.8 °F 21.2 °F 80% 30.24 in 10.0 mi West 10.4 mph - N/A   Clear
2:15 AM 26.6 °F 15.7 °F 19.4 °F 74% 30.24 in 10.0 mi West 12.7 mph - N/A   Clear
2:35 AM 26.6 °F 16.2 °F 21.2 °F 80% 30.24 in 10.0 mi West 11.5 mph - N/A   Clear
2:55 AM 28.4 °F 18.0 °F 21.2 °F 74% 30.24 in 10.0 mi WNW 12.7 mph - N/A   Scattered Clouds
3:15 AM 28.4 °F 18.0 °F 21.2 °F 74% 30.24 in 10.0 mi WNW 12.7 mph - N/A   Scattered Clouds
3:35 AM 28.4 °F 18.0 °F 21.2 °F 74% 30.24 in 10.0 mi WNW 12.7 mph - N/A   Clear
3:55 AM 26.6 °F 16.2 °F 21.2 °F 80% 30.23 in 10.0 mi WNW 11.5 mph - N/A   Clear
4:15 AM 26.6 °F 17.5 °F 19.4 °F 74% 30.24 in 10.0 mi WNW 9.2 mph - N/A   Clear
4:35 AM 26.6 °F 16.8 °F 19.4 °F 74% 30.23 in 10.0 mi WNW 10.4 mph - N/A   Clear
4:55 AM 26.6 °F 16.2 °F 19.4 °F 74% 30.23 in 10.0 mi WNW 11.5 mph - N/A   Clear
5:15 AM 26.6 °F 16.2 °F 21.2 °F 80% 30.23 in 10.0 mi NW 11.5 mph - N/A   Clear
5:35 AM 26.6 °F 15.7 °F 19.4 °F 74% 30.24 in 10.0 mi NW 12.7 mph - N/A   Clear
5:55 AM 26.6 °F 16.2 °F 19.4 °F 74% 30.24 in 10.0 mi NW 11.5 mph - N/A   Scattered Clouds
6:15 AM 26.6 °F 16.2 °F 19.4 °F 74% 30.25 in 10.0 mi NW 11.5 mph - N/A   Scattered Clouds
6:35 AM 26.6 °F 15.2 °F 19.4 °F 74% 30.25 in 10.0 mi NW 13.8 mph - N/A   Clear
6:55 AM 26.6 °F 15.2 °F 19.4 °F 74% 30.25 in 10.0 mi NW 13.8 mph - N/A   Scattered Clouds
7:15 AM 26.6 °F 16.2 °F 19.4 °F 74% 30.25 in 10.0 mi NW 11.5 mph - N/A   Clear
7:35 AM 26.6 °F 16.2 °F 19.4 °F 74% 30.26 in 10.0 mi NW 11.5 mph - N/A   Clear
8:15 AM 28.4 °F 18.0 °F 21.2 °F 74% 30.26 in 10.0 mi NW 12.7 mph - N/A   Clear
8:35 AM 28.4 °F 18.0 °F 21.2 °F 74% 30.27 in 10.0 mi NW 12.7 mph - N/A   Clear
9:15 AM 30.2 °F 20.8 °F 21.2 °F 69% 30.28 in 10.0 mi NW 11.5 mph - N/A   Clear
9:35 AM 32.0 °F 22.5 °F 23.0 °F 69% 30.28 in 10.0 mi WNW 12.7 mph - N/A   Clear
9:55 AM 32.0 °F 23.0 °F 23.0 °F 69% 30.28 in 10.0 mi WNW 11.5 mph - N/A   Clear
10:15 AM 32.0 °F 23.0 °F 24.8 °F 75% 30.28 in 10.0 mi NW 11.5 mph - N/A   Clear
10:35 AM 33.8 °F 25.3 °F 26.6 °F 75% 30.28 in 10.0 mi WNW 11.5 mph - N/A   Clear
10:55 AM 35.6 °F 27.1 °F 26.6 °F 70% 30.28 in 10.0 mi NW 12.7 mph - N/A   Clear
11:15 AM 35.6 °F 27.1 °F 26.6 °F 70% 30.28 in 10.0 mi NW 12.7 mph - N/A   Clear
11:35 AM 35.6 °F 27.5 °F 26.6 °F 70% 30.28 in 10.0 mi NW 11.5 mph - N/A   Clear
11:55 AM 37.4 °F 30.3 °F 24.8 °F 60% 30.28 in 10.0 mi NW 10.4 mph - N/A   Clear
12:35 PM 39.2 °F 34.2 °F 24.8 °F 56% 30.26 in 10.0 mi NW 6.9 mph - N/A   Clear
12:55 PM 39.2 °F 33.6 °F 24.8 °F 56% 30.25 in 10.0 mi WNW 8.1 mph - N/A   Clear
1:15 PM 39.2 °F 35.0 °F 24.8 °F 56% 30.25 in 10.0 mi West 5.8 mph - N/A   Clear
1:35 PM 39.2 °F 34.2 °F 26.6 °F 61% 30.24 in 10.0 mi West 6.9 mph - N/A   Clear
1:55 PM 41.0 °F 35.8 °F 26.6 °F 57% 30.23 in 10.0 mi SW 8.1 mph - N/A   Clear
2:15 PM 41.0 °F 35.2 °F 24.8 °F 53% 30.22 in 10.0 mi SW 9.2 mph - N/A   Clear
2:35 PM 41.0 °F 35.2 °F 24.8 °F 53% 30.21 in 10.0 mi West 9.2 mph - N/A   Clear
2:55 PM 41.0 °F 36.4 °F 28.4 °F 61% 30.21 in 10.0 mi SW 6.9 mph - N/A   Clear
3:15 PM 41.0 °F 36.4 °F 28.4 °F 61% 30.21 in 10.0 mi WSW 6.9 mph - N/A   Clear
3:35 PM 42.8 °F 38.6 °F 26.6 °F 53% 30.20 in 10.0 mi SW 6.9 mph - N/A   Clear
3:55 PM 42.8 °F 37.5 °F 28.4 °F 57% 30.19 in 10.0 mi West 9.2 mph - N/A   Clear
4:15 PM 42.8 °F 38.6 °F 28.4 °F 57% 30.19 in 10.0 mi WSW 6.9 mph - N/A   Clear
4:35 PM 42.8 °F 40.1 °F 30.2 °F 61% 30.19 in 10.0 mi SW 4.6 mph - N/A   Clear
4:55 PM 42.8 °F 38.6 °F 32.0 °F 66% 30.19 in 10.0 mi SW 6.9 mph - N/A   Clear
5:15 PM 42.8 °F 39.3 °F 30.2 °F 61% 30.18 in 10.0 mi SSW 5.8 mph - N/A   Clear
5:35 PM 42.8 °F 40.1 °F 32.0 °F 66% 30.18 in 10.0 mi SW 4.6 mph - N/A   Clear
5:55 PM 41.0 °F - 32.0 °F 70% 30.18 in 10.0 mi Calm Calm - N/A   Clear
6:15 PM 39.2 °F 35.9 °F 32.0 °F 75% 30.18 in 10.0 mi SSW 4.6 mph - N/A   Clear
6:35 PM 37.4 °F 33.8 °F 32.0 °F 81% 30.18 in 10.0 mi South 4.6 mph - N/A   Clear
6:55 PM 35.6 °F 30.7 °F 32.0 °F 87% 30.18 in 10.0 mi SSW 5.8 mph - N/A   Clear
7:15 PM 37.4 °F 34.9 °F 30.2 °F 75% 30.19 in 10.0 mi SW 3.5 mph - N/A   Clear
7:35 PM 35.6 °F 31.7 °F 30.2 °F 81% 30.18 in 10.0 mi SSW 4.6 mph - N/A   Clear
7:55 PM 33.8 °F 29.6 °F 30.2 °F 87% 30.18 in 10.0 mi SSW 4.6 mph - N/A   Clear
8:15 PM 33.8 °F 30.8 °F 30.2 °F 87% 30.19 in 10.0 mi SSW 3.5 mph - N/A   Clear
8:35 PM 33.8 °F - 30.2 °F 87% 30.19 in 10.0 mi Calm Calm - N/A   Clear
8:55 PM 33.8 °F - 30.2 °F 87% 30.19 in 10.0 mi Calm Calm - N/A   Clear
9:15 PM 33.8 °F - 30.2 °F 87% 30.20 in 10.0 mi Calm Calm - N/A   Clear
9:35 PM 30.2 °F - 26.6 °F 86% 30.20 in 10.0 mi Calm Calm - N/A   Clear
9:55 PM 32.0 °F - 30.2 °F 93% 30.21 in 10.0 mi Calm Calm - N/A   Clear
10:15 PM 32.0 °F - 28.4 °F 87% 30.21 in 10.0 mi Calm Calm - N/A   Clear
10:35 PM 28.4 °F - 26.6 °F 93% 30.22 in 10.0 mi Calm Calm - N/A   Clear
10:55 PM 30.2 °F 26.7 °F 26.6 °F 86% 30.22 in 10.0 mi NW 3.5 mph - N/A   Clear
11:15 PM 30.2 °F 25.4 °F 28.4 °F 93% 30.22 in 10.0 mi NW 4.6 mph - N/A   Clear
11:35 PM 30.2 °F 23.4 °F 28.4 °F 93% 30.22 in 10.0 mi North 6.9 mph - N/A   Scattered Clouds
11:55 PM 30.2 °F 24.3 °F 26.6 °F 86% 30.22 in 10.0 mi North 5.8 mph - N/A   Scattered Clouds